When you browse on this site, cookies collect data to enhance your experience and personalize the content and advertising you see.
Visit our Privacy Policy to learn more. By continuing to use the site, you agree to this use of cookies and data.
  • In United Kingdom
  • List of Countries
  • For 7 days
  • Water Temperature
  • Weather Map
  • Weather Widgets
  • user-avatar
    Login

    Hourly Weather Dangriga

    Today, 22 October, Tuesday

    Time Temperature Precipitation Wind Pressure Humidity
    00:00 +27°C° 0.1 mm 4 mps 757 mmHg 98%
    01:00 +27°C° 0.6 mm 4 mps 757 mmHg 98%
    02:00 +27°C° 0.6 mm 4 mps 757 mmHg 98%
    03:00 +27°C° 0.6 mm 4 mps 757 mmHg 98%
    04:00 +27°C° 1 mm 5 mps 757 mmHg 98%
    05:00 +27°C° 1 mm 5 mps 757 mmHg 98%
    06:00 +27°C° 1 mm 5 mps 757 mmHg 98%
    07:00 +28°C° 1.8 mm 5 mps 758 mmHg 96%
    08:00 +28°C° 1.8 mm 5 mps 758 mmHg 95%
    09:00 +29°C° 1.8 mm 5 mps 759 mmHg 94%
    10:00 +29°C° 2 mm 5 mps 758 mmHg 92%
    11:00 +29°C° 2 mm 5 mps 758 mmHg 91%
    12:00 +30°C° 2 mm 5 mps 757 mmHg 89%
    13:00 +30°C° 1 mm 5 mps 757 mmHg 85%
    14:00 +32°C° 1 mm 5 mps 756 mmHg 81%
    15:00 +32°C° 1 mm 6 mps 756 mmHg 77%
    16:00 +30°C° 2.6 mm 6 mps 756 mmHg 83%
    17:00 +28°C° 2.6 mm 6 mps 756 mmHg 89%
    18:00 +27°C° 2.6 mm 6 mps 756 mmHg 95%
    19:00 +27°C° 2 mm 6 mps 757 mmHg 95%
    20:00 +27°C° 2 mm 6 mps 757 mmHg 96%
    21:00 +27°C° 2 mm 6 mps 758 mmHg 97%
    22:00 +27°C° 3.1 mm 5 mps 758 mmHg 98%
    23:00 +26°C° 3.1 mm 4 mps 757 mmHg 98%

    Tomorrow, 23 October, Wednesday

    Time Temperature Precipitation Wind Pressure Humidity
    00:00 +26°C° 3.1 mm 3 mps 757 mmHg 98%
    01:00 +26°C° 5.6 mm 3 mps 757 mmHg 99%
    02:00 +26°C° 5.6 mm 3 mps 757 mmHg 99%
    03:00 +26°C° 5.6 mm 3 mps 757 mmHg 99%
    04:00 +26°C° 1.7 mm 3 mps 757 mmHg 99%
    05:00 +26°C° 1.7 mm 3 mps 757 mmHg 99%
    06:00 +26°C° 1.7 mm 2 mps 758 mmHg 99%
    07:00 +26°C° 0.1 mm 3 mps 758 mmHg 97%
    08:00 +27°C° 0.1 mm 3 mps 759 mmHg 95%
    09:00 +28°C° 0.1 mm 3 mps 759 mmHg 93%
    10:00 +29°C° 0.3 mm 3 mps 759 mmHg 88%
    11:00 +29°C° 0.3 mm 4 mps 758 mmHg 82%
    12:00 +30°C° 0.3 mm 4 mps 758 mmHg 77%
    13:00 +30°C° 0.1 mm 4 mps 757 mmHg 78%
    14:00 +30°C° 0.1 mm 4 mps 757 mmHg 78%
    15:00 +30°C° 0.1 mm 4 mps 756 mmHg 79%
    16:00 +29°C° 0 mm 4 mps 756 mmHg 84%
    17:00 +28°C° 0 mm 4 mps 757 mmHg 89%
    18:00 +27°C° 0 mm 3 mps 757 mmHg 93%
    19:00 +27°C° 0.1 mm 3 mps 757 mmHg 92%
    20:00 +27°C° 0.1 mm 3 mps 758 mmHg 92%
    21:00 +27°C° 0.1 mm 3 mps 758 mmHg 91%
    22:00 +27°C° 1.4 mm 3 mps 758 mmHg 93%
    23:00 +26°C° 1.4 mm 3 mps 758 mmHg 94%

    Day after tomorrow, 24 October, Thursday

    Time Temperature Precipitation Wind Pressure Humidity
    00:00 +26°C° 1.4 mm 3 mps 758 mmHg 95%
    01:00 +26°C° 1.3 mm 3 mps 757 mmHg 96%
    02:00 +26°C° 1.3 mm 2 mps 757 mmHg 97%
    03:00 +26°C° 1.3 mm 2 mps 757 mmHg 98%
    04:00 +26°C° 0.3 mm 2 mps 757 mmHg 98%
    05:00 +26°C° 0.3 mm 2 mps 757 mmHg 98%
    06:00 +26°C° 0.3 mm 2 mps 757 mmHg 98%
    07:00 +27°C° 0.9 mm 3 mps 758 mmHg 96%
    08:00 +28°C° 0.9 mm 4 mps 758 mmHg 95%
    09:00 +29°C° 0.9 mm 4 mps 759 mmHg 93%
    10:00 +29°C° 0.6 mm 4 mps 758 mmHg 89%
    11:00 +30°C° 0.6 mm 4 mps 758 mmHg 85%
    12:00 +30°C° 0.6 mm 4 mps 757 mmHg 81%
    13:00 +32°C° 0.2 mm 4 mps 757 mmHg 79%
    14:00 +32°C° 0.2 mm 4 mps 756 mmHg 76%
    15:00 +32°C° 0.2 mm 4 mps 755 mmHg 74%
    16:00 +30°C° 0.2 mm 4 mps 756 mmHg 82%
    17:00 +28°C° 0.2 mm 4 mps 756 mmHg 90%
    18:00 +27°C° 0.2 mm 4 mps 756 mmHg 98%
    19:00 +26°C° 0.3 mm 4 mps 756 mmHg 98%
    20:00 +26°C° 0.3 mm 4 mps 757 mmHg 98%
    21:00 +26°C° 0.3 mm 4 mps 757 mmHg 98%
    22:00 +26°C° 0.3 mm 4 mps 757 mmHg 98%
    23:00 +26°C° 0.3 mm 4 mps 757 mmHg 98%

    25 October, Friday

    Time Temperature Precipitation Wind Pressure Humidity
    00:00 +26°C° 0.3 mm 4 mps 757 mmHg 98%
    01:00 +26°C° 0.6 mm 4 mps 757 mmHg 98%
    02:00 +26°C° 0.6 mm 3 mps 757 mmHg 98%
    03:00 +26°C° 0.6 mm 3 mps 757 mmHg 98%
    04:00 +26°C° 0.7 mm 3 mps 757 mmHg 98%
    05:00 +26°C° 0.7 mm 2 mps 757 mmHg 98%
    06:00 +25°C° 0.7 mm 2 mps 757 mmHg 98%
    07:00 +27°C° 0.3 mm 2 mps 757 mmHg 92%
    08:00 +29°C° 0.3 mm 3 mps 758 mmHg 85%
    09:00 +31°C° 0.3 mm 3 mps 758 mmHg 79%
    10:00 +30°C° 0.4 mm 4 mps 757 mmHg 83%
    11:00 +30°C° 0.4 mm 4 mps 757 mmHg 88%
    12:00 +30°C° 0.4 mm 4 mps 756 mmHg 92%
    13:00 +30°C° 0.4 mm 4 mps 756 mmHg 91%
    14:00 +30°C° 0.4 mm 4 mps 755 mmHg 89%
    15:00 +30°C° 0.4 mm 4 mps 755 mmHg 88%
    16:00 +29°C° 0.1 mm 4 mps 755 mmHg 91%
    17:00 +28°C° 0.1 mm 4 mps 755 mmHg 94%
    18:00 +27°C° 0.1 mm 4 mps 756 mmHg 97%
    19:00 +27°C° 0 mm 3 mps 756 mmHg 97%
    20:00 +27°C° 0 mm 3 mps 757 mmHg 97%
    21:00 +26°C° 0 mm 3 mps 757 mmHg 98%
    22:00 +26°C° 0.1 mm 3 mps 757 mmHg 98%
    23:00 +26°C° 0.1 mm 3 mps 757 mmHg 98%

    26 October, Saturday

    Time Temperature Precipitation Wind Pressure Humidity
    00:00 +26°C° 0.1 mm 3 mps 757 mmHg 98%
    01:00 +26°C° 0.1 mm 2 mps 756 mmHg 98%
    02:00 +26°C° 0.1 mm 2 mps 756 mmHg 98%
    03:00 +26°C° 0.1 mm 2 mps 756 mmHg 98%
    04:00 +26°C° 0.5 mm 2 mps 756 mmHg 98%
    05:00 +25°C° 0.5 mm 2 mps 756 mmHg 98%
    06:00 +25°C° 0.5 mm 2 mps 757 mmHg 98%
    07:00 +27°C° 1.2 mm 1 mps 757 mmHg 93%
    08:00 +29°C° 1.2 mm 1 mps 757 mmHg 89%
    09:00 +31°C° 1.2 mm 1 mps 758 mmHg 84%
    10:00 +32°C° 0.1 mm 1 mps 757 mmHg 75%
    11:00 +34°C° 0.1 mm 2 mps 757 mmHg 67%
    12:00 +35°C° 0.1 mm 2 mps 756 mmHg 59%
    13:00 +34°C° 0.4 mm 2 mps 756 mmHg 69%
    14:00 +33°C° 0.4 mm 3 mps 755 mmHg 80%
    15:00 +31°C° 0.4 mm 3 mps 755 mmHg 91%
    16:00 +30°C° 0.7 mm 3 mps 756 mmHg 93%
    17:00 +28°C° 0.7 mm 3 mps 756 mmHg 95%
    18:00 +27°C° 0.7 mm 2 mps 757 mmHg 97%
    19:00 +26°C° 1.8 mm 3 mps 757 mmHg 97%
    20:00 +26°C° 1.8 mm 3 mps 758 mmHg 98%
    21:00 +25°C° 1.8 mm 4 mps 758 mmHg 98%
    22:00 +25°C° 0.6 mm 4 mps 758 mmHg 98%
    23:00 +25°C° 0.6 mm 4 mps 758 mmHg 98%

    27 October, Sunday

    Time Temperature Precipitation Wind Pressure Humidity
    00:00 +23°C° 0.6 mm 5 mps 758 mmHg 98%
    01:00 +23°C° 0.1 mm 4 mps 758 mmHg 98%
    02:00 +23°C° 0.1 mm 4 mps 758 mmHg 98%
    03:00 +24°C° 0.1 mm 3 mps 758 mmHg 98%
    04:00 +24°C° 0 mm 3 mps 758 mmHg 98%
    05:00 +24°C° 0 mm 3 mps 758 mmHg 97%
    06:00 +24°C° 0 mm 2 mps 758 mmHg 97%
    07:00 +26°C° 0 mm 2 mps 759 mmHg 87%
    08:00 +28°C° 0 mm 2 mps 759 mmHg 77%
    09:00 +31°C° 0 mm 2 mps 760 mmHg 67%
    10:00 +31°C° 0 mm 2 mps 759 mmHg 63%
    11:00 +32°C° 0 mm 2 mps 759 mmHg 59%
    12:00 +34°C° 0 mm 2 mps 758 mmHg 56%
    13:00 +32°C° 0 mm 2 mps 758 mmHg 60%
    14:00 +32°C° 0 mm 2 mps 757 mmHg 65%
    15:00 +31°C° 0 mm 2 mps 757 mmHg 70%
    16:00 +29°C° 0 mm 2 mps 757 mmHg 77%
    17:00 +28°C° 0 mm 2 mps 758 mmHg 83%
    18:00 +26°C° 0 mm 1 mps 758 mmHg 90%
    19:00 +26°C° 0 mm 1 mps 758 mmHg 90%
    20:00 +26°C° 0 mm 1 mps 759 mmHg 91%
    21:00 +25°C° 0 mm 1 mps 759 mmHg 91%
    22:00 +25°C° 0.1 mm 1 mps 759 mmHg 91%
    23:00 +25°C° 0.1 mm 2 mps 759 mmHg 91%

    28 October, Monday

    Time Temperature Precipitation Wind Pressure Humidity
    00:00 +25°C° 0.1 mm 2 mps 759 mmHg 91%
    01:00 +24°C° 0 mm 2 mps 759 mmHg 91%
    02:00 +24°C° 0 mm 3 mps 759 mmHg 92%
    03:00 +24°C° 0 mm 3 mps 758 mmHg 92%
    04:00 +24°C° 0 mm 3 mps 759 mmHg 93%
    05:00 +24°C° 0 mm 3 mps 759 mmHg 94%
    06:00 +24°C° 0 mm 3 mps 759 mmHg 94%
    07:00 +27°C° 0 mm 3 mps 759 mmHg 84%
    08:00 +29°C° 0 mm 3 mps 760 mmHg 73%
    09:00 +32°C° 0 mm 2 mps 760 mmHg 63%
    10:00 +32°C° 0 mm 2 mps 760 mmHg 62%
    11:00 +33°C° 0 mm 3 mps 759 mmHg 62%
    12:00 +34°C° 0 mm 3 mps 759 mmHg 62%
    13:00 +32°C° 0.4 mm 2 mps 758 mmHg 72%
    14:00 +31°C° 0.4 mm 2 mps 758 mmHg 83%
    15:00 +30°C° 0.4 mm 2 mps 757 mmHg 93%
    16:00 +29°C° 0.7 mm 2 mps 757 mmHg 94%
    17:00 +27°C° 0.7 mm 2 mps 758 mmHg 96%
    18:00 +26°C° 0.7 mm 2 mps 758 mmHg 97%
    19:00 +26°C° 0.5 mm 2 mps 758 mmHg 97%
    20:00 +26°C° 0.5 mm 2 mps 759 mmHg 97%
    21:00 +25°C° 0.5 mm 2 mps 759 mmHg 97%
    22:00 +25°C° 0.8 mm 3 mps 759 mmHg 97%
    23:00 +25°C° 0.8 mm 4 mps 759 mmHg 97%
    Show more